Location: Newark
(4.6381°N, 74.0644°W)
Time: 00:43:04
(UTC+00:00)

OTV 5 (USA 277) - Visible Passes

Search period start: 20 October 2019 00:00
Search period end: 30 October 2019 00:00
Orbit: 310 x 324 km, 54.5° (Epoch: 17 October)

Date Brightness Start Highest point End Pass type
(mag) Time Alt. Az. Time Alt. Az. Time Alt. Az.
21 Oct ? 00:13:04 10° SSW 00:13:20 12° SSW 00:13:20 12° SSW visible
22 Oct ? 00:28:14 10° WSW 00:28:30 12° W 00:28:30 12° W visible
22 Oct ? 23:08:13 10° S 23:10:37 28° ESE 23:12:45 12° ENE visible
23 Oct ? 23:22:30 10° SW 23:25:04 41° WNW 23:27:39 10° NNE visible
25 Oct ? 09:22:31 10° NNE 09:23:36 12° NE 09:24:41 10° E visible
26 Oct ? 09:37:06 31° N 09:38:06 57° ENE 09:40:46 10° SE visible
27 Oct ? 09:52:15 22° WSW 09:52:34 22° WSW 09:54:46 10° S visible
